Regional Weather Roundup
Issued by NWS

Home | Current Version | Previous Version | Graphics & Text | Print | Product List | Glossary On
Versions: 1 2 3 4 5 6 7 8 9 10 11 12 13 14 15 16 17 18 19 20 21 22 23 24 25 26 27 28 29 30 31 32 33 34 35 36 37 38 39 40 41 42 43 44 45 46 47 48 49 50
421
ASUS43 KFSD 211310
RWRSD

WEATHER ROUNDUP FOR SOUTH DAKOTA
NATIONAL WEATHER SERVICE SIOUX FALLS SD
800 AM CDT SAT APR 21 2018

NOTE: "FAIR" INDICATES FEW OR NO CLOUDS BELOW 12,000 FEET WITH NO
SIGNIFICANT WEATHER AND/OR OBSTRUCTIONS TO VISIBILITY.


SDZ001>005-009-010-012>017-211400-
NORTHWEST AND NORTH CENTRAL SOUTH DAKOTA

CITY           SKY/WX    TMP DP  RH WIND       PRES   REMARKS
BUFFALO          N/A     39  36  89 S10       30.11S
FAITH            N/A     38  38 100 SE13      30.24S
MOBRIDGE       CLOUDY    42  39  89 SE8       30.28R
$$

SDZ012>016-024>037-041>051-057-063-072>074-211400-
SOUTHWEST AND SOUTH CENTRAL SOUTH DAKOTA

CITY           SKY/WX    TMP DP  RH WIND       PRES   REMARKS
RAPID CTY ARPT CLOUDY    38  37  97 SE8       30.22R FOG
PIERRE         CLOUDY    39  39 100 E5        30.31R FOG
CUSTER         FOG       31  30  96 S8        30.17R VSB 1/4 WCI  23
ELLSWORTH AFB  CLOUDY   N/A N/A N/A S13       30.22
PHILIP         CLOUDY    39  39 100 NE5       30.28R
PINE RIDGE     CLOUDY    39  36  89 SE5       30.22S
SPEARFISH      FAIR      36  32  87 E6        30.17R
WINNER         CLOUDY    39  34  82 SE8       30.32R
$$

SDZ004>011-016>023-039-040-211400-
NORTHEAST SOUTH DAKOTA

CITY           SKY/WX    TMP DP  RH WIND       PRES   REMARKS
ABERDEEN       PTSUNNY   41  37  86 SE5       30.37R
WATERTOWN      CLOUDY    38  33  82 SE3       30.36R
BROOKINGS      CLOUDY    37  32  82 CALM      30.37R
SISSETON         N/A     38  35  89 SE3       30.37R
$$

SDZ017-020-022-023-036>040-048>070-211400-
SOUTHEAST SOUTH DAKOTA

CITY           SKY/WX    TMP DP  RH WIND       PRES   REMARKS
SIOUX FALLS    CLOUDY    39  29  67 E5        30.36R
HURON          CLOUDY    39  35  86 E6        30.35R
CHAMBERLAIN    CLOUDY    40  40 100 CALM      30.34R FOG
MITCHELL       CLOUDY    38  33  82 SE7       30.37R
YANKTON        CLOUDY    40  35  83 NE7       30.35R
$$

ABBREVIATIONS USED IN REMARKS
   TC - TEMPERATURE IN CELSIUS
  WCI - WIND CHILL INDEX
   HX - HEAT INDEX
  VSB - VISIBILITY





USA.gov is the U.S. government's official web portal to all federal, state and local government web resources and services.